Regional Weather Roundup
Issued by NWS Little Rock, AR

Home | Current Version | Previous Version | Text Only | Print | Product List | Glossary On
Versions: 1 2 3 4 5 6 7 8 9 10 11 12 13 14 15 16 17 18 19 20 21 22 23 24 25 26 27 28
000
ASUS44 KLZK 311705
RWRLZK

WEATHER ROUNDUP FOR ARKANSAS
NATIONAL WEATHER SERVICE LITTLE ROCK AR
1200 PM CDT FRI OCT 31 2014

NOTE: "FAIR" INDICATES FEW OR NO CLOUDS BELOW 12,000 FEET WITH NO
SIGNIFICANT WEATHER AND/OR OBSTRUCTIONS TO VISIBILITY.

ARZ001-003-010-029-311800-
NORTHWEST ARKANSAS

CITY           SKY/WX    TMP DP  RH WIND       PRES   REMARKS
FAYETTEVILLE   PTSUNNY   49  37  63 N10G21    30.35R
FORT SMITH     CLOUDY    56  40  55 N12G24    30.34R
HARRISON       CLOUDY    49  37  63 NW16G25   30.30R
BENTONVILLE    MOSUNNY   46  32  57 NE17G25   30.36S
ROGERS         PTSUNNY   46  33  60 NW17      30.36R
SILOAM SPGS    PTSUNNY   52  36  54 N20       30.38R
HIGHFILL       LGT RAIN  50  35  56 N20       30.36R
SPRINGDALE     PTSUNNY   48  36  61 N12G23    30.38R
$$

ARZ004-005-016-311800-
NORTH CENTRAL ARKANSAS

CITY           SKY/WX    TMP DP  RH WIND       PRES   REMARKS
BATESVILLE     CLOUDY    54  39  58 NW9G18    30.24S
FLIPPIN        PTSUNNY   54  34  47 N14G20    30.29S
MTN HOME       MOSUNNY   51  35  54 N10G23    30.28R
$$

ARZ040-041-311800-
WEST CENTRAL ARKANSAS

CITY           SKY/WX    TMP DP  RH WIND       PRES   REMARKS
MENA           MOSUNNY   59  43  55 N5        30.30R
MOUNT IDA      MOSUNNY   60  42  51 N9G20     30.25R
$$

ARZ009-017-025-026-028-311800-
NORTHEAST ARKANSAS

CITY           SKY/WX    TMP DP  RH WIND       PRES   REMARKS
CORNING        FAIR      54  41  62 NW13      30.21S
JONESBORO      CLOUDY    53  42  66 N16G24    30.20R
NEWPORT        MOSUNNY   57  42  57 N22G32    30.22R
WALNUT RIDGE   CLOUDY    54  39  58 N17       30.21S
BLYTHEVILLE    CLOUDY    55  45  68 N25G33    30.17R
NW BLYTHEVILLE PTSUNNY   54  45  71 N15G32    30.17
$$

ARZ022-023-033-042-044-311800-
CENTRAL ARKANSAS

CITY           SKY/WX    TMP DP  RH WIND       PRES   REMARKS
LITTLE ROCK    MOSUNNY   64  39  39 N18G25    30.23S
N LITTLE ROCK  MOSUNNY   59  44  55 N14G21    30.23S
JACKSONVILLE   MOSUNNY   61  41  47 N13G20    30.22S
SEARCY         MOSUNNY   61  42  49 N14       30.23R
HOT SPRINGS    SUNNY     61  41  47 NE10      30.25R
RUSSELLVILLE   MOSUNNY   61  40  45 N13       30.26S
$$

ARZ036-311800-
EAST ARKANSAS

CITY           SKY/WX    TMP DP  RH WIND       PRES   REMARKS
WEST MEMPHIS   CLOUDY    56  46  69 N14G30    30.15R
$$

ARZ050-053-066-070-073-311800-
SOUTHWEST ARKANSAS

CITY           SKY/WX    TMP DP  RH WIND       PRES   REMARKS
ARKADELPHIA    FAIR      64  47  54 N17       30.22S
CAMDEN         SUNNY     64  41  42 N13G20    30.21R
TEXARKANA      SUNNY     63  45  51 N16G24    30.24R
DE QUEEN       SUNNY     61  44  53 N9G25     30.26R
$$

ARZ056-057-069-311800-
SOUTHEAST ARKANSAS

CITY           SKY/WX    TMP DP  RH WIND       PRES   REMARKS
PINE BLUFF     SUNNY     61  43  51 N20G26    30.20R
STUTTGART      MOSUNNY   61  43  51 N23       30.20S
MONTICELLO     SUNNY     63  45  51 N9        30.17R

$$





USA.gov is the U.S. government's official web portal to all federal, state and local government web resources and services.